[[{"header":{"parameterUnit":"m.s-1","parameterCategory":2,"la1":30.2992,"la2":30.254,"lo1":-89.0895,"lo2":-89.0443,"dy":0.0025,"dx":0.0025,"nx":19,"ny":19,"refTime":"2026-03-07T09:00:00:Z","depth":"0","parameterNumber":2,"parameterNumberName":"U-component_of_CURRENTS"},"data":[0,0,0,0.2049,0.205,0.2109,0.2109,0.2161,0.2161,0,0,0,0,0,0,0,0,0,0,0,0.2017,0.2017,0.2049,0.2051,0.2109,0.2109,0.2161,0.2161,0,0,0,0,0,0,0,0,0,0,0,0.2017,0.2017,0.2018,0.2051,0.2109,0.2109,0.2161,0.212,0,0,0,0,0,0,0,0,0,0,0.2064,0.2032,0.2017,0.2018,0.2051,0.2109,0.2109,0.2118,0.2122,0.2131,0,0.2141,0,0.2162,0.2165,0.2166,0,0,0,0.204,0.2028,0.2059,0.2018,0.2052,0.2109,0.208,0.212,0.2125,0.2137,0.2142,0.2145,0.2163,0.2166,0.2166,0.227,0.2271,0,0,0.2037,0.2014,0.2055,0.2062,0.2069,0.2078,0.2082,0.2123,0.212,0.2142,0.2146,0.2164,0.2166,0.2167,0.2269,0.227,0,0,0,0.2034,0.2011,0.2041,0.2059,0.2078,0.208,0.2084,0.2118,0.2132,0.2147,0.2165,0.2166,0.2167,0.2269,0.227,0.2313,0,0,0,0.2032,0.2012,0.2039,0.2024,0.2077,0.21,0.2077,0.2128,0.2135,0.2165,0.2166,0.2168,0.2268,0.2269,0.231,0.2304,0,0,0,0.2014,0.2009,0.202,0.2023,0.2057,0.21,0.2116,0.213,0.2146,0.2166,0.2168,0.2267,0.2269,0.2307,0.2301,0.2308,0,0,0,0.1984,0.1986,0.2019,0.2034,0.2056,0.2114,0.2116,0.2151,0.217,0.2167,0.2268,0.2269,0.2307,0.2299,0.2306,0.2211,0.2212,0,0,0.197,0.1984,0.1997,0.2028,0.2086,0.2105,0.2171,0.2194,0.22,0.2248,0.2251,0.2311,0.2301,0.2308,0.2308,0.2305,0,0,0,0.1982,0.1994,0.2017,0.2059,0.211,0.2171,0.2203,0.2236,0.2291,0.2223,0.2333,0.2325,0.2328,0.2268,0.2267,0.2218,0.2277,0.2277,0.2277,0.1911,0.197,0.2007,0.2086,0.2132,0.2223,0.2276,0.2329,0.2329,0.2372,0.2378,0.2434,0.2374,0.2371,0.2324,0.2411,0.2411,0.2411,0.2412,0.1901,0.1922,0.2014,0.2072,0.2162,0.2225,0.2351,0.2384,0.2456,0.2447,0.2448,0.2338,0.2371,0.2321,0.2415,0.2414,0.2414,0.2413,0.2413,0.1848,0.1868,0.1925,0.2019,0.2111,0.2223,0.2311,0.2404,0.2473,0.2499,0.2408,0.2406,0.2343,0.2494,0.2494,0.2494,0.2494,0.2494,0.2494,0.1755,0.1823,0.1857,0.1961,0.2012,0.2116,0.2267,0.2332,0.2402,0.2432,0.2431,0.2356,0.2458,0.2432,0.2494,0.2494,0.2494,0.2494,0.2494,0.1688,0.1711,0.1756,0.1802,0.1918,0.1936,0.2108,0.22,0.2285,0.2301,0.2294,0.2396,0.2362,0.2362,0.2334,0.2367,0.2367,0.2367,0.2367,0.1612,0.1638,0.1666,0.1708,0.1777,0.1851,0.1836,0.1947,0.2099,0.2136,0.2218,0.2183,0.219,0.2145,0.2149,0.2117,0.2094,0.2094,0.2094,0.1568,0.1586,0.1569,0.1623,0.1695,0.1725,0.1627,0.1643,0.1902,0.2083,0.2175,0.2186,0.2137,0.2152,0.2083,0.2093,0.204,0,0]},{"header":{"parameterUnit":"m.s-1","parameterCategory":2,"la1":30.2992,"la2":30.254,"lo1":-89.0895,"lo2":-89.0443,"dy":0.0025,"dx":0.0025,"nx":19,"ny":19,"refTime":"2026-03-07T09:00:00:Z","depth":"0","parameterNumber":3,"parameterNumberName":"V-component_of_CURRENTS"},"data":[0,0,0,0.0068,0.0068,0.0052,0.0052,0.0024,0.0024,0,0,0,0,0,0,0,0,0,0,0,0.0077,0.0077,0.0068,0.0068,0.0052,0.0052,0.0024,0.0024,0,0,0,0,0,0,0,0,0,0,0,0.0077,0.0077,0.0077,0.0068,0.0052,0.0052,0.0024,0.0038,0,0,0,0,0,0,0,0,0,0,0.0054,0.0068,0.0077,0.0077,0.0068,0.0052,0.0052,0.0039,0.0037,0.0029,0,0.0029,0,0.0024,0.0022,0.0022,0,0,0,0.0068,0.0069,0.006,0.0077,0.0067,0.0052,0.0059,0.0038,0.0036,0.0027,0.0029,0.0028,0.0024,0.0022,0.0021,0.0033,0.0034,0,0,0.0068,0.0078,0.0061,0.0059,0.0066,0.0059,0.0058,0.0037,0.0039,0.0029,0.0027,0.0023,0.0021,0.0021,0.0033,0.0033,0,0,0,0.0071,0.0078,0.007,0.006,0.0057,0.0059,0.0058,0.004,0.0036,0.0027,0.0023,0.0021,0.0021,0.0033,0.0033,0.0102,0,0,0,0.0072,0.008,0.007,0.0076,0.0057,0.005,0.0062,0.0038,0.0035,0.0023,0.0021,0.0021,0.0032,0.0033,0.0099,0.0149,0,0,0,0.0077,0.008,0.0078,0.0076,0.0068,0.005,0.0045,0.0037,0.0032,0.0022,0.002,0.0032,0.0033,0.0097,0.0144,0.0202,0,0,0,0.0087,0.0098,0.0079,0.0095,0.0069,0.0083,0.0045,0.005,0.0046,0.0021,0.0032,0.0033,0.0096,0.0141,0.0199,0.0264,0.0285,0,0,0.0108,0.0101,0.0112,0.0095,0.0123,0.0085,0.0119,0.0092,0.0055,0.0038,0.0038,0.01,0.0144,0.0201,0.0312,0.0332,0,0,0,0.0124,0.0135,0.0141,0.0151,0.0149,0.0165,0.013,0.0122,0.0108,0.0055,0.0098,0.0124,0.0158,0.0189,0.0205,0.0119,0.0037,0.0037,0.0037,0.0175,0.0174,0.0205,0.0207,0.0217,0.0218,0.0231,0.0211,0.0156,0.016,0.0177,0.0267,0.0301,0.0314,0.0223,0.0163,0.0164,0.0164,0.0164,0.023,0.0255,0.0259,0.0288,0.0299,0.0325,0.0324,0.03,0.0312,0.0244,0.0273,0.0257,0.0335,0.0233,0.0168,0.0168,0.0167,0.0167,0.0166,0.028,0.029,0.0304,0.0347,0.0395,0.0399,0.0481,0.0445,0.0393,0.0416,0.044,0.0439,0.0352,0.0422,0.0423,0.0423,0.0423,0.0424,0.0424,0.0324,0.0337,0.0382,0.0414,0.0457,0.053,0.0566,0.0597,0.0589,0.054,0.054,0.038,0.0346,0.034,0.0432,0.043,0.0429,0.0429,0.0428,0.0381,0.0388,0.0456,0.0502,0.0604,0.0715,0.0738,0.0811,0.0806,0.0823,0.058,0.0604,0.0595,0.0581,0.0581,0.073,0.073,0.073,0.073,0.0424,0.0429,0.0532,0.062,0.0733,0.081,0.096,0.0979,0.0844,0.0739,0.0653,0.0584,0.0575,0.0558,0.0545,0.054,0.0675,0.0675,0.0675,0.0465,0.0494,0.0575,0.0658,0.0787,0.0925,0.1049,0.1081,0.0853,0.0658,0.0522,0.0525,0.0401,0.0395,0.0346,0.0335,0.0319,0,0]}],[{"header":{"parameterUnit":"m.s-1","parameterCategory":2,"la1":30.2992,"la2":30.254,"lo1":-89.0895,"lo2":-89.0443,"dy":0.0025,"dx":0.0025,"nx":19,"ny":19,"refTime":"2026-03-07T09:00:00:Z","depth":"2","parameterNumber":2,"parameterNumberName":"U-component_of_CURRENTS"},"data":[0,0,0,0.176,0.1762,0.1823,0.1823,0.1904,0.1905,0,0,0,0,0,0,0,0,0,0,0,0.176,0.1761,0.176,0.1762,0.1823,0.1823,0.1904,0.1905,0,0,0,0,0,0,0,0,0,0,0,0.1759,0.1761,0.1762,0.1762,0.1823,0.1823,0.1904,0.1858,0,0,0,0,0,0,0,0,0,0,0.1798,0.1777,0.176,0.1762,0.1762,0.1823,0.1824,0.1855,0.1861,0.1877,0,0.1904,0,0.1897,0.191,0.1911,0,0,0,0.1764,0.1772,0.1806,0.1762,0.1763,0.1823,0.1796,0.1858,0.1864,0.1883,0.1905,0.1907,0.1899,0.1911,0.1911,0.2015,0.2016,0,0,0.176,0.1751,0.1802,0.181,0.1803,0.1794,0.1798,0.1862,0.1868,0.1905,0.1909,0.19,0.1911,0.1912,0.2015,0.2016,0,0,0,0.1749,0.1749,0.178,0.1807,0.1813,0.1796,0.18,0.1865,0.1882,0.191,0.1901,0.1912,0.1913,0.2014,0.2015,0.2065,0,0,0,0.1747,0.1742,0.1779,0.1771,0.1813,0.1833,0.1802,0.1878,0.1884,0.1901,0.1912,0.1914,0.2014,0.2015,0.2062,0.2091,0,0,0,0.1753,0.1741,0.176,0.1771,0.1796,0.1833,0.1851,0.1879,0.1878,0.1911,0.1914,0.2013,0.2015,0.206,0.2087,0.2115,0,0,0,0.1724,0.1743,0.176,0.178,0.1795,0.1846,0.1851,0.189,0.1921,0.1912,0.2014,0.2015,0.2059,0.2085,0.2113,0.1978,0.1979,0,0,0.1725,0.1742,0.1754,0.1771,0.1822,0.1836,0.1891,0.1934,0.1945,0.1992,0.1994,0.2063,0.2087,0.2115,0.2054,0.2052,0,0,0,0.1739,0.1762,0.1781,0.1815,0.1851,0.1906,0.1935,0.1972,0.2037,0.1969,0.2076,0.209,0.2105,0.2019,0.2019,0.2021,0.2021,0.2021,0.2021,0.1731,0.1759,0.1795,0.1847,0.1891,0.1958,0.2015,0.2071,0.2071,0.2117,0.2139,0.2208,0.2118,0.2115,0.2145,0.2145,0.2146,0.2146,0.2146,0.1732,0.1745,0.1813,0.1857,0.1931,0.1988,0.2104,0.2134,0.2228,0.221,0.2222,0.2087,0.2117,0.215,0.2149,0.2149,0.2148,0.2148,0.2148,0.1708,0.1717,0.1759,0.1828,0.192,0.2012,0.2107,0.2198,0.2273,0.2311,0.22,0.2197,0.2231,0.2311,0.2311,0.2312,0.2312,0.2312,0.2312,0.164,0.1689,0.1713,0.18,0.1854,0.1954,0.2107,0.2163,0.2224,0.2253,0.2251,0.2264,0.2259,0.2241,0.2316,0.2316,0.2315,0.2315,0.2314,0.1591,0.161,0.1642,0.1683,0.1786,0.18,0.1961,0.2028,0.2119,0.212,0.221,0.2211,0.2181,0.2178,0.2159,0.2209,0.2209,0.2209,0.2209,0.1543,0.1556,0.1572,0.1609,0.1664,0.1731,0.1688,0.1753,0.1909,0.1969,0.198,0.1897,0.1906,0.1856,0.1862,0.1834,0.18,0.1799,0.1798,0.1507,0.152,0.1502,0.1541,0.1598,0.1605,0.1493,0.1436,0.1581,0.1783,0.1919,0.218,0.2082,0.2087,0.2029,0.2031,0.1994,0,0]},{"header":{"parameterUnit":"m.s-1","parameterCategory":2,"la1":30.2992,"la2":30.254,"lo1":-89.0895,"lo2":-89.0443,"dy":0.0025,"dx":0.0025,"nx":19,"ny":19,"refTime":"2026-03-07T09:00:00:Z","depth":"2","parameterNumber":3,"parameterNumberName":"V-component_of_CURRENTS"},"data":[0,0,0,-0.0134,-0.0134,-0.016,-0.016,-0.0161,-0.0161,0,0,0,0,0,0,0,0,0,0,0,-0.012,-0.012,-0.0134,-0.0134,-0.016,-0.016,-0.0161,-0.0161,0,0,0,0,0,0,0,0,0,0,0,-0.0119,-0.012,-0.012,-0.0134,-0.016,-0.016,-0.0161,-0.015,0,0,0,0,0,0,0,0,0,0,-0.0129,-0.0114,-0.012,-0.012,-0.0134,-0.016,-0.016,-0.0149,-0.015,-0.0141,0,-0.0143,0,-0.0154,-0.0161,-0.0161,0,0,0,-0.0134,-0.0113,-0.0127,-0.012,-0.0135,-0.016,-0.0148,-0.015,-0.0151,-0.0142,-0.0143,-0.0143,-0.0154,-0.0161,-0.0161,-0.0121,-0.0121,0,0,-0.0132,-0.0118,-0.0127,-0.0128,-0.0138,-0.0147,-0.0149,-0.0151,-0.0146,-0.0143,-0.0144,-0.0154,-0.0161,-0.0161,-0.0122,-0.0121,0,0,0,-0.0128,-0.0116,-0.0131,-0.0127,-0.0136,-0.0148,-0.015,-0.0145,-0.0152,-0.0144,-0.0154,-0.0161,-0.016,-0.0122,-0.0121,-0.0057,0,0,0,-0.0128,-0.0115,-0.013,-0.0121,-0.0136,-0.0144,-0.0144,-0.0152,-0.0153,-0.0154,-0.0161,-0.016,-0.0122,-0.0122,-0.006,-0.0014,0,0,0,-0.0119,-0.0114,-0.0117,-0.012,-0.0133,-0.0144,-0.0151,-0.0153,-0.0159,-0.0161,-0.016,-0.0123,-0.0122,-0.0062,-0.0019,0.0033,0,0,0,-0.0103,-0.0086,-0.0117,-0.0096,-0.0133,-0.0118,-0.0151,-0.0146,-0.0144,-0.0161,-0.0122,-0.0121,-0.0063,-0.0022,0.003,0.0066,0.0084,0,0,-0.007,-0.0081,-0.0068,-0.0096,-0.0069,-0.0114,-0.0073,-0.0095,-0.0128,-0.012,-0.012,-0.0059,-0.0019,0.0032,0.0117,0.0133,0,0,0,-0.005,-0.0039,-0.0036,-0.003,-0.0036,-0.002,-0.0051,-0.0062,-0.0068,-0.0124,-0.0059,-0.0036,-0.0005,0.001,0.0023,-0.0117,-0.0117,-0.0117,-0.0118,0.0024,0.0014,0.0047,0.004,0.0051,0.0044,0.0054,0.0034,-0.0012,-0.0009,0.0016,0.01,0.0116,0.0126,0.0005,0.0005,0.0005,0.0006,0.0006,0.0092,0.0115,0.011,0.0133,0.014,0.0165,0.0161,0.0131,0.0143,0.008,0.0106,0.0076,0.0145,0.0011,0.001,0.0009,0.0009,0.0008,0.0008,0.0148,0.0158,0.0162,0.0198,0.0237,0.0237,0.0305,0.0269,0.0216,0.0238,0.0243,0.0242,0.0152,0.0243,0.0244,0.0244,0.0245,0.0245,0.0245,0.0203,0.0208,0.0242,0.0267,0.03,0.0357,0.0382,0.04,0.0381,0.0333,0.0333,0.0181,0.0173,0.0166,0.0252,0.0251,0.025,0.0249,0.0249,0.0266,0.026,0.0317,0.035,0.0431,0.0518,0.0535,0.0571,0.0564,0.0563,0.0388,0.0382,0.037,0.0358,0.0355,0.0486,0.0486,0.0486,0.0486,0.031,0.0309,0.0388,0.0455,0.0549,0.0601,0.0708,0.0696,0.0616,0.0541,0.0538,0.0482,0.0472,0.046,0.0446,0.0443,0.0597,0.0597,0.0597,0.0353,0.0371,0.0436,0.049,0.0595,0.0695,0.0771,0.0754,0.0635,0.0598,0.053,0.0499,0.0405,0.0393,0.0362,0.0345,0.0333,0,0]}],[{"header":{"parameterUnit":"m.s-1","parameterCategory":2,"la1":30.2992,"la2":30.254,"lo1":-89.0895,"lo2":-89.0443,"dy":0.0025,"dx":0.0025,"nx":19,"ny":19,"refTime":"2026-03-07T09:00:00:Z","depth":"4","parameterNumber":2,"parameterNumberName":"U-component_of_CURRENTS"},"data":[0,0,0,0.1106,0.1108,0.1212,0.1213,0.1318,0.1319,0,0,0,0,0,0,0,0,0,0,0,0.1077,0.1078,0.1106,0.1108,0.1212,0.1213,0.1318,0.1319,0,0,0,0,0,0,0,0,0,0,0,0.1077,0.1078,0.1079,0.1108,0.1212,0.1213,0.1317,0.1247,0,0,0,0,0,0,0,0,0,0,0.115,0.1129,0.1078,0.1079,0.1109,0.1212,0.1213,0.1244,0.1251,0.1261,0,0.1283,0,0.1298,0.1324,0.1325,0,0,0,0.1113,0.1123,0.1146,0.1079,0.111,0.1212,0.1167,0.1248,0.1257,0.127,0.1285,0.1289,0.13,0.1325,0.1325,0.1405,0.1405,0,0,0.1107,0.1101,0.114,0.1151,0.1145,0.1163,0.117,0.1254,0.1268,0.1285,0.1292,0.1301,0.1326,0.1326,0.1404,0.1405,0,0,0,0.1087,0.1096,0.1118,0.1147,0.1165,0.1166,0.1174,0.1265,0.1271,0.1293,0.1303,0.1326,0.1327,0.1404,0.1404,0.1426,0,0,0,0.1084,0.1084,0.1116,0.1113,0.1164,0.1221,0.1183,0.1266,0.1275,0.1302,0.1326,0.1328,0.1404,0.1404,0.1425,0.1432,0,0,0,0.1071,0.1083,0.1096,0.1112,0.1154,0.122,0.1232,0.1268,0.1281,0.1325,0.1328,0.1404,0.1404,0.1424,0.1431,0.1472,0,0,0,0.1058,0.1079,0.1097,0.1123,0.1153,0.1202,0.1231,0.1285,0.1324,0.1327,0.1404,0.1404,0.1424,0.143,0.1471,0.1298,0,0,0,0.107,0.108,0.1093,0.1111,0.1141,0.1187,0.124,0.1309,0.1332,0.1375,0.1377,0.1425,0.1431,0.1472,0.1328,0,0,0,0,0.1086,0.1095,0.1108,0.1135,0.1173,0.1226,0.1287,0.1321,0.1388,0.1357,0.1429,0.1432,0.1458,0.1352,0.1407,0.1407,0.1407,0.1407,0.1407,0.109,0.1101,0.1121,0.1146,0.1186,0.1261,0.1313,0.1372,0.1394,0.1429,0.1452,0.1501,0.1389,0.1457,0.1457,0.1457,0.1457,0.1457,0.1457,0.1087,0.1092,0.1125,0.1149,0.1205,0.1262,0.1354,0.1394,0.1481,0.1475,0.1499,0.1384,0.1459,0.1459,0.1458,0.1458,0.1458,0.1458,0.1458,0.1069,0.1073,0.1096,0.1134,0.1198,0.1275,0.1352,0.1434,0.1497,0.1534,0.1446,0.1526,0.1522,0.1563,0.1563,0.1563,0.1563,0.1563,0.1563,0.1039,0.1059,0.107,0.1119,0.1152,0.1231,0.1365,0.1419,0.1505,0.1454,0.1556,0.1537,0.1534,0.1528,0.1567,0.1566,0.1566,0.1566,0.1565,0.1002,0.1019,0.1025,0.1047,0.1108,0.1146,0.1292,0.1359,0.1413,0.1408,0.1413,0.1419,0.1401,0.1401,0.139,0.1389,0.1387,0.1385,0,0.0976,0.0983,0.0983,0.0989,0.1008,0.1091,0.1115,0.1202,0.1283,0.1236,0.1417,0.142,0.1424,0.14,0.1397,0.1382,0,0,0,0.0949,0.0954,0.0936,0.0943,0.0947,0.1004,0.1115,0.1109,0.1261,0.1264,0.1333,0.1347,0.1481,0.1577,0.1565,0.1561,0.1552,0,0]},{"header":{"parameterUnit":"m.s-1","parameterCategory":2,"la1":30.2992,"la2":30.254,"lo1":-89.0895,"lo2":-89.0443,"dy":0.0025,"dx":0.0025,"nx":19,"ny":19,"refTime":"2026-03-07T09:00:00:Z","depth":"4","parameterNumber":3,"parameterNumberName":"V-component_of_CURRENTS"},"data":[0,0,0,-0.008,-0.0081,-0.01,-0.01,-0.0087,-0.0086,0,0,0,0,0,0,0,0,0,0,0,-0.0071,-0.0071,-0.008,-0.0081,-0.01,-0.01,-0.0087,-0.0086,0,0,0,0,0,0,0,0,0,0,0,-0.007,-0.0071,-0.0071,-0.0081,-0.01,-0.01,-0.0087,-0.0081,0,0,0,0,0,0,0,0,0,0,-0.0067,-0.006,-0.0071,-0.0071,-0.0081,-0.01,-0.01,-0.0081,-0.0081,-0.0068,0,-0.0071,0,-0.0079,-0.0085,-0.0085,0,0,0,-0.0079,-0.006,-0.007,-0.0071,-0.0081,-0.01,-0.0091,-0.0082,-0.0082,-0.0068,-0.0071,-0.0071,-0.0079,-0.0085,-0.0084,-0.0027,-0.0026,0,0,-0.0078,-0.0068,-0.007,-0.007,-0.0085,-0.009,-0.0091,-0.0082,-0.0078,-0.0071,-0.0071,-0.0079,-0.0084,-0.0084,-0.0027,-0.0026,0,0,0,-0.0076,-0.0067,-0.0078,-0.007,-0.0077,-0.0091,-0.0092,-0.0078,-0.0084,-0.0071,-0.0079,-0.0084,-0.0084,-0.0028,-0.0027,0.0022,0,0,0,-0.0075,-0.0067,-0.0078,-0.0071,-0.0078,-0.0082,-0.0088,-0.0084,-0.0084,-0.0079,-0.0084,-0.0084,-0.0028,-0.0027,0.002,0.0052,0,0,0,-0.007,-0.0066,-0.0069,-0.0071,-0.0081,-0.0083,-0.0088,-0.0084,-0.0088,-0.0085,-0.0084,-0.0028,-0.0027,0.0018,0.0048,0.0063,0,0,0,-0.0057,-0.0044,-0.0069,-0.0048,-0.0081,-0.0058,-0.0088,-0.0077,-0.0071,-0.0084,-0.0028,-0.0027,0.0017,0.0045,0.0061,0.0062,0,0,0,-0.003,-0.004,-0.0026,-0.0049,-0.0015,-0.0056,-0.0011,-0.0026,-0.0049,-0.0029,-0.0028,0.0021,0.0048,0.0063,0.0126,0,0,0,0,-0.001,0.0001,0.0008,0.0019,0.002,0.0035,0.0015,0.0008,0.0011,-0.0041,0.0029,0.0045,0.0052,0.0047,-0.0022,-0.0022,-0.0022,-0.0022,-0.0022,0.0047,0.0046,0.0081,0.0085,0.0101,0.0099,0.0107,0.0095,0.0065,0.0071,0.0091,0.0146,0.0144,0.0091,0.0091,0.0091,0.0092,0.0092,0.0092,0.0102,0.0124,0.0133,0.0161,0.0173,0.0203,0.0202,0.0177,0.0185,0.0149,0.0154,0.0107,0.0097,0.0096,0.0095,0.0095,0.0094,0.0094,0.0094,0.0141,0.0151,0.0162,0.0205,0.025,0.0261,0.0303,0.0281,0.0237,0.0247,0.0221,0.018,0.0169,0.0239,0.024,0.024,0.024,0.024,0.024,0.017,0.0184,0.0216,0.0255,0.0291,0.0338,0.0358,0.0356,0.0316,0.0289,0.0259,0.0196,0.0191,0.0177,0.0244,0.0243,0.0243,0.0242,0.0242,0.0211,0.021,0.0261,0.0294,0.0371,0.0406,0.0427,0.0409,0.0404,0.0373,0.0302,0.0298,0.0279,0.0272,0.026,0.0353,0.0354,0.0354,0,0.0236,0.024,0.0302,0.0358,0.0423,0.045,0.0466,0.0456,0.0396,0.0387,0.0387,0.0308,0.0304,0.0281,0.0276,0.0262,0,0,0,0.0264,0.0279,0.0324,0.0371,0.0442,0.0461,0.0471,0.0456,0.0408,0.04,0.0361,0.0359,0.0308,0.0254,0.0215,0.0209,0.0185,0,0]}]]